Hourly Data Report for April 04, 2020

MIRAMICHI RCS
NEW BRUNSWICK
Current Station Operator: ECCC - MSC

47°00'34.000" N
65°27'54.000" W
33.00 m
8100989
71744
ACQ

Download Data

Hourly Data (April 2020)
Hourly Data Report for April 4, 2020
TIME
LST
Temp Definition
°C
Dew Point Definition
°C
Rel Hum Definition
%
Precip. Amount Definition
mm

Wind Dir Definition
10's deg

Wind Spd Definition
km/h
Visibility Definition
km
Stn Press Definition
kPa
Hmdx Definition


Wind Chill Definition


Weather Definition


00:00 -0.4 -2.7 84 LegendMM 4 15   101.76   -5 LegendNANA
01:00 -0.6 -2.9 85 LegendMM 4 16   101.74   -5 LegendNANA
02:00 -0.7 -2.9 85 LegendMM 4 13   101.70   -5 LegendNANA
03:00 -0.8 -3.0 85 LegendMM 3 12   101.65   -5 LegendNANA
04:00 -0.9 -3.1 85 LegendMM 3 11   101.63   -5 LegendNANA
05:00 -1.0 -3.3 84 LegendMM 4 13   101.61   -5 LegendNANA
06:00 -1.3 -3.4 85 LegendMM 4 15   101.62   -6 LegendNANA
07:00 -1.2 -3.5 85 LegendMM 4 16   101.65   -6 LegendNANA
08:00 -0.9 -3.4 83 LegendMM 3 14   101.65   -5 LegendNANA
09:00 -0.6 -3.6 80 LegendMM 3 16   101.67   -5 LegendNANA
10:00 -0.2 -3.7 78 LegendMM 5 16   101.66   -5 LegendNANA
11:00 0.0 -3.0 80 LegendMM 7 18   101.63   -5 LegendNANA
12:00 0.7 -3.4 74 LegendMM 9 22   101.58     LegendNANA
13:00 1.3 -3.4 71 LegendMM 8 18   101.51     LegendNANA
14:00 1.5 -3.2 71 LegendMM 10 19   101.45     LegendNANA
15:00 1.7 -2.9 72 LegendMM 9 16   101.39     LegendNANA
16:00 1.7 -3.0 71 LegendMM 8 17   101.36     LegendNANA
17:00 1.0 -3.4 72 LegendMM 7 16   101.35     LegendNANA
18:00 -0.2 -3.9 76 LegendMM 8 15   101.35   -5 LegendNANA
19:00 -1.2 -4.6 77 LegendMM 5 9   101.36   -4 LegendNANA
20:00 -2.1 -4.4 85 LegendMM 5 8   101.38   -5 LegendNANA
21:00 -2.8 -4.4 89 LegendMM 4 4   101.37   -4 LegendNANA
22:00 -2.4 -4.3 86 LegendMM 5 3   101.37   -4 LegendNANA
23:00 -2.5 -4.0 90 LegendMM 8 3   101.37   -4 LegendNANA

Notes on Data Quality.

Legend

  • E = Estimated
  • M = Missing
  • NA = Not Available*
  • [empty] = Indicates an unobserved value
Date modified: